Time,TemperatureF,DewpointF,PressureIn,WindDirection,WindDirectionDegrees,WindSpeedMPH,WindSpeedGustMPH,Humidity,HourlyPrecipIn,Conditions,Clouds,dailyrainin,SoftwareType,DateUTC
2013-10-07 00:03:00,52.5,39.4,29.93,ESE,111,0.9,0.9,61,0.00,,,0.00,meteobridge,2013-10-07 07:03:00,
2013-10-07 00:08:00,52.5,39.4,29.93,ESE,111,0.0,0.0,61,0.00,,,0.00,meteobridge,2013-10-07 07:08:00,
2013-10-07 00:13:00,52.3,39.4,29.93,ESE,112,0.0,0.0,61,0.00,,,0.00,meteobridge,2013-10-07 07:13:00,
2013-10-07 00:18:00,52.2,38.7,29.93,ESE,112,0.0,0.0,60,0.00,,,0.00,meteobridge,2013-10-07 07:18:00,
2013-10-07 00:23:00,52.0,39.0,29.93,ESE,112,0.0,0.0,61,0.00,,,0.00,meteobridge,2013-10-07 07:23:00,
2013-10-07 00:28:00,51.6,38.7,29.93,ESE,112,0.0,0.0,61,0.00,,,0.00,meteobridge,2013-10-07 07:28:00,
2013-10-07 00:34:00,51.8,39.2,29.93,ESE,112,0.0,0.0,62,0.00,,,0.00,meteobridge,2013-10-07 07:34:00,
2013-10-07 00:39:00,51.6,39.0,29.92,ESE,112,0.0,0.0,62,0.00,,,0.00,meteobridge,2013-10-07 07:39:00,
2013-10-07 00:44:00,51.3,38.7,29.92,ESE,112,0.0,0.0,62,0.00,,,0.00,meteobridge,2013-10-07 07:44:00,
2013-10-07 00:49:00,51.4,38.8,29.92,ESE,111,0.0,0.0,62,0.00,,,0.00,meteobridge,2013-10-07 07:49:00,
2013-10-07 00:54:00,51.3,39.0,29.92,ESE,112,0.0,0.0,63,0.00,,,0.00,meteobridge,2013-10-07 07:54:00,
2013-10-07 00:59:00,50.7,39.0,29.92,ESE,111,0.0,0.0,64,0.00,,,0.00,meteobridge,2013-10-07 07:59:00,
2013-10-07 01:05:00,50.7,39.0,29.92,ESE,111,0.0,0.0,64,0.00,,,0.00,meteobridge,2013-10-07 08:05:00,
2013-10-07 01:10:00,50.4,38.7,29.92,ESE,111,0.0,0.0,64,0.00,,,0.00,meteobridge,2013-10-07 08:10:00,
2013-10-07 01:15:00,50.2,38.8,29.92,ESE,112,0.0,0.0,65,0.00,,,0.00,meteobridge,2013-10-07 08:15:00,
2013-10-07 01:20:00,49.8,38.8,29.92,ESE,111,0.0,0.0,66,0.00,,,0.00,meteobridge,2013-10-07 08:20:00,
2013-10-07 01:25:00,49.8,39.4,29.92,ESE,111,0.0,0.0,67,0.00,,,0.00,meteobridge,2013-10-07 08:25:00,
2013-10-07 01:30:00,50.2,39.2,29.92,ESE,111,0.0,0.0,66,0.00,,,0.00,meteobridge,2013-10-07 08:30:00,
2013-10-07 01:36:00,50.0,39.0,29.92,ESE,112,0.0,0.0,66,0.00,,,0.00,meteobridge,2013-10-07 08:36:00,
2013-10-07 01:41:00,49.8,38.8,29.92,ESE,111,0.0,0.0,66,0.00,,,0.00,meteobridge,2013-10-07 08:41:00,
2013-10-07 01:46:00,49.5,39.0,29.92,ESE,112,0.0,0.0,67,0.00,,,0.00,meteobridge,2013-10-07 08:46:00,
2013-10-07 01:51:00,49.5,39.0,29.92,ESE,111,0.0,0.0,67,0.00,,,0.00,meteobridge,2013-10-07 08:51:00,
2013-10-07 01:56:00,49.6,38.7,29.92,ESE,111,0.0,0.0,66,0.00,,,0.00,meteobridge,2013-10-07 08:56:00,
2013-10-07 02:01:00,49.6,38.7,29.92,ESE,111,0.0,0.0,66,0.00,,,0.00,meteobridge,2013-10-07 09:01:00,
2013-10-07 02:06:00,49.5,39.0,29.92,ESE,112,0.0,0.0,67,0.00,,,0.00,meteobridge,2013-10-07 09:06:00,
2013-10-07 02:12:00,49.5,39.0,29.92,ESE,111,0.0,0.0,67,0.00,,,0.00,meteobridge,2013-10-07 09:12:00,
2013-10-07 02:17:00,49.5,39.0,29.92,ESE,111,0.0,0.0,67,0.00,,,0.00,meteobridge,2013-10-07 09:17:00,
2013-10-07 02:22:00,49.3,38.8,29.91,ESE,111,0.0,0.0,67,0.00,,,0.00,meteobridge,2013-10-07 09:22:00,
2013-10-07 02:27:00,48.9,38.1,29.91,ESE,111,0.0,0.0,66,0.00,,,0.00,meteobridge,2013-10-07 09:27:00,
2013-10-07 02:32:00,48.9,38.8,29.91,ESE,112,0.0,0.0,68,0.00,,,0.00,meteobridge,2013-10-07 09:32:00,
2013-10-07 02:38:00,48.7,38.7,29.91,ESE,112,0.0,0.0,68,0.00,,,0.00,meteobridge,2013-10-07 09:38:00,
2013-10-07 02:43:00,48.4,37.9,29.91,ESE,112,0.0,0.0,67,0.00,,,0.00,meteobridge,2013-10-07 09:43:00,
2013-10-07 02:48:00,48.2,38.1,29.91,ESE,111,0.0,0.0,68,0.00,,,0.00,meteobridge,2013-10-07 09:48:00,
2013-10-07 02:53:00,48.2,38.1,29.91,ESE,111,0.0,0.0,68,0.00,,,0.00,meteobridge,2013-10-07 09:53:00,
2013-10-07 02:58:00,47.8,38.1,29.91,ESE,112,0.0,0.0,69,0.00,,,0.00,meteobridge,2013-10-07 09:58:00,
2013-10-07 03:03:00,47.8,38.1,29.91,ESE,111,0.0,0.0,69,0.00,,,0.00,meteobridge,2013-10-07 10:03:00,
2013-10-07 03:09:00,47.7,37.6,29.90,ESE,111,0.0,0.0,68,0.00,,,0.00,meteobridge,2013-10-07 10:09:00,
2013-10-07 03:14:00,47.3,37.9,29.90,ESE,111,0.0,0.0,70,0.00,,,0.00,meteobridge,2013-10-07 10:14:00,
2013-10-07 03:19:00,47.3,37.6,29.90,SE,125,0.0,0.0,69,0.00,,,0.00,meteobridge,2013-10-07 10:19:00,
2013-10-07 03:24:00,47.3,37.2,29.89,SE,125,0.0,0.0,68,0.00,,,0.00,meteobridge,2013-10-07 10:24:00,
2013-10-07 03:29:00,47.5,37.8,29.89,ESE,123,0.9,0.9,69,0.00,,,0.00,meteobridge,2013-10-07 10:29:00,
2013-10-07 03:35:00,47.5,37.4,29.89,ESE,123,0.0,0.0,68,0.00,,,0.00,meteobridge,2013-10-07 10:35:00,
2013-10-07 03:40:00,47.5,37.8,29.89,ESE,123,0.0,0.9,69,0.00,,,0.00,meteobridge,2013-10-07 10:40:00,
2013-10-07 03:45:00,47.1,37.4,29.89,ESE,123,0.0,0.0,69,0.00,,,0.00,meteobridge,2013-10-07 10:45:00,
2013-10-07 03:50:00,46.9,37.2,29.89,ESE,123,0.0,0.9,69,0.00,,,0.00,meteobridge,2013-10-07 10:50:00,
2013-10-07 03:55:00,47.1,37.4,29.89,ESE,123,0.9,0.9,69,0.00,,,0.00,meteobridge,2013-10-07 10:55:00,
2013-10-07 04:00:00,47.1,37.8,29.89,SE,124,0.0,0.9,70,0.00,,,0.00,meteobridge,2013-10-07 11:00:00,
2013-10-07 04:06:00,46.9,37.2,29.89,ESE,123,0.0,0.9,69,0.00,,,0.00,meteobridge,2013-10-07 11:06:00,
2013-10-07 04:11:00,46.6,37.8,29.89,ESE,123,0.0,0.0,71,0.00,,,0.00,meteobridge,2013-10-07 11:11:00,
2013-10-07 04:16:00,46.4,37.6,29.89,ESE,123,0.0,0.0,71,0.00,,,0.00,meteobridge,2013-10-07 11:16:00,
2013-10-07 04:21:00,46.4,37.9,29.89,ESE,123,0.0,0.0,72,0.00,,,0.00,meteobridge,2013-10-07 11:21:00,
2013-10-07 04:26:00,46.0,37.2,29.89,ESE,123,0.0,0.0,71,0.00,,,0.00,meteobridge,2013-10-07 11:26:00,
2013-10-07 04:31:00,45.9,37.4,29.89,ESE,123,0.0,0.0,72,0.00,,,0.00,meteobridge,2013-10-07 11:31:00,
2013-10-07 04:37:00,45.7,37.2,29.89,ESE,123,0.0,0.0,72,0.00,,,0.00,meteobridge,2013-10-07 11:37:00,
2013-10-07 04:42:00,45.9,37.8,29.89,ESE,123,0.0,0.0,73,0.00,,,0.00,meteobridge,2013-10-07 11:42:00,
2013-10-07 04:47:00,45.9,37.8,29.89,ESE,123,0.0,0.0,73,0.00,,,0.00,meteobridge,2013-10-07 11:47:00,
2013-10-07 04:52:00,45.9,37.8,29.89,NW,305,0.0,2.0,73,0.00,,,0.00,meteobridge,2013-10-07 11:52:00,
2013-10-07 04:57:00,46.0,37.6,29.89,NW,306,0.0,0.0,72,0.00,,,0.00,meteobridge,2013-10-07 11:57:00,
2013-10-07 05:02:00,46.2,37.4,29.89,NW,305,0.0,0.0,71,0.00,,,0.00,meteobridge,2013-10-07 12:02:00,
2013-10-07 05:08:00,46.0,37.6,29.89,NW,304,0.0,0.0,72,0.00,,,0.00,meteobridge,2013-10-07 12:08:00,
2013-10-07 05:13:00,45.9,37.4,29.89,NW,304,0.0,0.0,72,0.00,,,0.00,meteobridge,2013-10-07 12:13:00,
2013-10-07 05:18:00,45.7,37.6,29.89,NW,304,0.0,0.9,73,0.00,,,0.00,meteobridge,2013-10-07 12:18:00,
2013-10-07 05:23:00,45.7,37.9,29.89,West,264,0.9,2.0,74,0.00,,,0.00,meteobridge,2013-10-07 12:23:00,
2013-10-07 05:28:00,45.9,37.8,29.89,West,263,0.0,0.9,73,0.00,,,0.00,meteobridge,2013-10-07 12:28:00,
2013-10-07 05:33:00,45.9,37.4,29.89,ESE,123,0.9,2.0,72,0.00,,,0.00,meteobridge,2013-10-07 12:33:00,
2013-10-07 05:39:00,46.0,37.6,29.89,ESE,113,0.9,2.0,72,0.00,,,0.00,meteobridge,2013-10-07 12:39:00,
2013-10-07 05:44:00,46.0,37.2,29.89,SE,136,0.0,0.9,71,0.00,,,0.00,meteobridge,2013-10-07 12:44:00,
2013-10-07 05:49:00,45.9,37.0,29.89,SE,136,0.9,0.9,71,0.00,,,0.00,meteobridge,2013-10-07 12:49:00,
2013-10-07 05:54:00,45.7,37.2,29.89,SE,136,0.0,0.9,72,0.00,,,0.00,meteobridge,2013-10-07 12:54:00,
2013-10-07 05:59:00,45.3,37.2,29.89,SE,136,0.0,0.0,73,0.00,,,0.00,meteobridge,2013-10-07 12:59:00,
2013-10-07 06:04:00,45.1,37.0,29.89,SE,136,0.0,0.0,73,0.00,,,0.00,meteobridge,2013-10-07 13:04:00,
2013-10-07 06:10:00,45.0,37.2,29.89,SE,136,0.0,0.0,74,0.00,,,0.00,meteobridge,2013-10-07 13:10:00,
2013-10-07 06:15:00,44.6,37.2,29.89,SE,136,0.0,0.0,75,0.00,,,0.00,meteobridge,2013-10-07 13:15:00,
2013-10-07 06:20:00,44.4,37.0,29.89,SE,136,0.0,0.0,75,0.00,,,0.00,meteobridge,2013-10-07 13:20:00,
2013-10-07 06:25:00,44.1,36.7,29.90,SE,136,0.0,0.0,75,0.00,,,0.00,meteobridge,2013-10-07 13:25:00,
2013-10-07 06:30:00,44.1,37.0,29.90,SE,136,0.0,0.0,76,0.00,,,0.00,meteobridge,2013-10-07 13:30:00,
2013-10-07 06:36:00,44.2,37.6,29.90,West,281,0.9,2.0,77,0.00,,,0.00,meteobridge,2013-10-07 13:36:00,
2013-10-07 06:41:00,44.2,37.2,29.90,NE,43,0.9,0.9,76,0.00,,,0.00,meteobridge,2013-10-07 13:41:00,
2013-10-07 06:46:00,44.4,36.7,29.90,East,83,0.0,0.0,74,0.00,,,0.00,meteobridge,2013-10-07 13:46:00,
2013-10-07 06:51:00,44.4,37.0,29.90,SW,229,0.9,2.9,75,0.00,,,0.00,meteobridge,2013-10-07 13:51:00,
2013-10-07 06:56:00,44.1,37.0,29.90,SW,230,0.9,0.9,76,0.00,,,0.00,meteobridge,2013-10-07 13:56:00,
2013-10-07 07:01:00,44.1,37.4,29.90,SW,230,0.0,0.9,77,0.00,,,0.00,meteobridge,2013-10-07 14:01:00,
2013-10-07 07:06:00,44.1,37.0,29.91,SW,230,0.0,0.0,76,0.00,,,0.00,meteobridge,2013-10-07 14:06:00,
2013-10-07 07:12:00,43.9,36.9,29.91,SW,230,0.9,0.9,76,0.00,,,0.00,meteobridge,2013-10-07 14:12:00,
2013-10-07 07:17:00,43.7,37.0,29.91,SW,229,0.0,0.0,77,0.00,,,0.00,meteobridge,2013-10-07 14:17:00,
2013-10-07 07:22:00,43.3,36.9,29.91,SW,229,0.0,0.9,78,0.00,,,0.00,meteobridge,2013-10-07 14:22:00,
2013-10-07 07:27:00,43.7,37.2,29.91,SW,230,0.0,0.0,78,0.00,,,0.00,meteobridge,2013-10-07 14:27:00,
2013-10-07 07:32:00,43.5,37.0,29.91,SW,229,0.0,0.0,78,0.00,,,0.00,meteobridge,2013-10-07 14:32:00,
2013-10-07 07:38:00,43.3,36.7,29.91,SW,229,0.0,0.0,77,0.00,,,0.00,meteobridge,2013-10-07 14:38:00,
2013-10-07 07:43:00,43.7,37.6,29.91,SW,230,0.9,0.9,79,0.00,,,0.00,meteobridge,2013-10-07 14:43:00,
2013-10-07 07:48:00,44.4,37.6,29.91,SW,230,0.0,0.9,77,0.00,,,0.00,meteobridge,2013-10-07 14:48:00,
2013-10-07 07:53:00,45.1,37.9,29.91,SW,229,0.0,0.9,76,0.00,,,0.00,meteobridge,2013-10-07 14:53:00,
2013-10-07 07:58:00,46.2,38.7,29.91,SW,230,0.0,0.9,75,0.00,,,0.00,meteobridge,2013-10-07 14:58:00,
2013-10-07 08:04:00,48.0,38.7,29.91,SW,230,0.0,0.0,70,0.00,,,0.00,meteobridge,2013-10-07 15:04:00,
2013-10-07 08:09:00,49.5,38.7,29.91,SW,230,0.0,0.0,66,0.00,,,0.00,meteobridge,2013-10-07 15:09:00,
2013-10-07 08:14:00,49.5,38.7,29.91,SW,230,0.9,0.9,66,0.00,,,0.00,meteobridge,2013-10-07 15:14:00,
2013-10-07 08:19:00,49.8,37.8,29.91,SW,230,0.9,0.9,63,0.00,,,0.00,meteobridge,2013-10-07 15:19:00,
2013-10-07 08:24:00,50.7,38.1,29.91,SW,230,0.0,0.0,62,0.00,,,0.00,meteobridge,2013-10-07 15:24:00,
2013-10-07 08:29:00,52.9,39.7,29.91,SW,230,0.0,0.0,61,0.00,,,0.00,meteobridge,2013-10-07 15:29:00,
2013-10-07 08:34:00,55.2,40.3,29.91,SW,230,0.0,0.0,57,0.00,,,0.00,meteobridge,2013-10-07 15:34:00,
2013-10-07 08:40:00,55.2,39.7,29.91,SW,230,0.9,0.9,56,0.00,,,0.00,meteobridge,2013-10-07 15:40:00,
2013-10-07 08:45:00,55.0,39.6,29.91,SW,232,0.9,0.9,56,0.00,,,0.00,meteobridge,2013-10-07 15:45:00,
2013-10-07 08:50:00,55.0,38.3,29.91,SW,234,0.9,2.0,53,0.00,,,0.00,meteobridge,2013-10-07 15:50:00,
2013-10-07 08:55:00,55.6,38.3,29.92,WSW,256,0.0,0.0,52,0.00,,,0.00,meteobridge,2013-10-07 15:55:00,
2013-10-07 09:00:00,57.0,38.1,29.92,WSW,254,0.9,0.9,49,0.00,,,0.00,meteobridge,2013-10-07 16:00:00,
2013-10-07 09:06:00,58.5,37.2,29.92,WSW,254,0.0,0.9,45,0.00,,,0.00,meteobridge,2013-10-07 16:06:00,
2013-10-07 09:11:00,59.9,38.5,29.91,SSW,203,0.9,0.9,45,0.00,,,0.00,meteobridge,2013-10-07 16:11:00,
2013-10-07 09:16:00,60.8,38.7,29.91,SSW,199,0.0,0.9,44,0.00,,,0.00,meteobridge,2013-10-07 16:16:00,
2013-10-07 09:21:00,61.2,38.5,29.91,SSW,200,0.0,0.0,43,0.00,,,0.00,meteobridge,2013-10-07 16:21:00,
2013-10-07 09:26:00,61.9,37.2,29.91,SSW,205,0.0,0.9,40,0.00,,,0.00,meteobridge,2013-10-07 16:26:00,
2013-10-07 09:31:00,62.8,36.9,29.91,SSE,161,0.9,2.0,38,0.00,,,0.00,meteobridge,2013-10-07 16:31:00,
2013-10-07 09:37:00,63.7,36.9,29.92,SE,141,0.9,0.9,37,0.00,,,0.00,meteobridge,2013-10-07 16:37:00,
2013-10-07 09:42:00,64.4,36.1,29.92,SSE,167,0.0,0.9,35,0.00,,,0.00,meteobridge,2013-10-07 16:42:00,
2013-10-07 09:47:00,65.7,36.5,29.92,SSE,167,0.9,0.9,34,0.00,,,0.00,meteobridge,2013-10-07 16:47:00,
2013-10-07 09:52:00,66.6,38.1,29.91,SSW,209,0.9,2.0,35,0.00,,,0.00,meteobridge,2013-10-07 16:52:00,
2013-10-07 09:57:00,66.7,37.4,29.91,SW,227,2.0,2.0,34,0.00,,,0.00,meteobridge,2013-10-07 16:57:00,
2013-10-07 10:02:00,66.0,37.6,29.91,SW,234,0.0,0.9,35,0.00,,,0.00,meteobridge,2013-10-07 17:02:00,
2013-10-07 10:08:00,66.4,37.9,29.91,SW,234,0.0,2.0,35,0.00,,,0.00,meteobridge,2013-10-07 17:08:00,
2013-10-07 10:13:00,66.9,39.0,29.91,SW,221,2.9,2.9,36,0.00,,,0.00,meteobridge,2013-10-07 17:13:00,
2013-10-07 10:18:00,67.3,37.9,29.91,SSE,160,0.9,2.0,34,0.00,,,0.00,meteobridge,2013-10-07 17:18:00,
2013-10-07 10:23:00,68.2,39.6,29.91,WNW,284,0.9,2.0,35,0.00,,,0.00,meteobridge,2013-10-07 17:23:00,
2013-10-07 10:28:00,68.5,38.3,29.91,WNW,292,2.0,2.0,33,0.00,,,0.00,meteobridge,2013-10-07 17:28:00,
2013-10-07 10:34:00,69.1,37.2,29.91,West,259,0.9,2.0,31,0.00,,,0.00,meteobridge,2013-10-07 17:34:00,
2013-10-07 10:39:00,69.6,37.6,29.91,SSW,205,0.9,2.9,31,0.00,,,0.00,meteobridge,2013-10-07 17:39:00,
2013-10-07 10:44:00,70.5,38.5,29.91,SW,219,0.9,2.9,31,0.00,,,0.00,meteobridge,2013-10-07 17:44:00,
2013-10-07 10:49:00,71.2,41.4,29.91,SW,224,0.9,0.9,34,0.00,,,0.00,meteobridge,2013-10-07 17:49:00,
2013-10-07 10:54:00,71.8,42.6,29.91,South,170,2.9,2.9,35,0.00,,,0.00,meteobridge,2013-10-07 17:54:00,
2013-10-07 10:59:00,72.0,42.1,29.91,SE,136,2.0,2.9,34,0.00,,,0.00,meteobridge,2013-10-07 17:59:00,
2013-10-07 11:04:00,72.1,42.3,29.91,SE,134,0.9,2.9,34,0.00,,,0.00,meteobridge,2013-10-07 18:04:00,
2013-10-07 11:09:00,72.3,42.4,29.90,SSE,162,2.0,4.0,34,0.00,,,0.00,meteobridge,2013-10-07 18:09:00,
2013-10-07 11:14:00,72.7,41.9,29.90,SSE,165,0.9,4.0,33,0.00,,,0.00,meteobridge,2013-10-07 18:14:00,
2013-10-07 11:20:00,73.0,42.3,29.90,South,189,2.0,4.0,33,0.00,,,0.00,meteobridge,2013-10-07 18:20:00,
2013-10-07 11:25:00,73.8,42.8,29.89,SSW,196,2.0,4.0,33,0.00,,,0.00,meteobridge,2013-10-07 18:25:00,
2013-10-07 11:30:00,74.1,43.2,29.89,South,177,2.0,2.0,33,0.00,,,0.00,meteobridge,2013-10-07 18:30:00,
2013-10-07 11:35:00,74.7,42.8,29.89,South,170,2.9,2.9,32,0.00,,,0.00,meteobridge,2013-10-07 18:35:00,
2013-10-07 11:40:00,75.0,42.3,29.89,SSE,162,2.0,4.0,31,0.00,,,0.00,meteobridge,2013-10-07 18:40:00,
2013-10-07 11:46:00,75.7,42.1,29.89,SSE,153,2.9,4.0,30,0.00,,,0.00,meteobridge,2013-10-07 18:46:00,
2013-10-07 11:51:00,76.3,41.7,29.89,SW,221,2.0,4.0,29,0.00,,,0.00,meteobridge,2013-10-07 18:51:00,
2013-10-07 11:56:00,76.6,41.2,29.89,SSW,202,0.9,2.9,28,0.00,,,0.00,meteobridge,2013-10-07 18:56:00,
2013-10-07 12:01:00,77.0,41.4,29.89,West,277,2.0,2.9,28,0.00,,,0.00,meteobridge,2013-10-07 19:01:00,
2013-10-07 12:06:00,77.4,40.8,29.88,ESE,107,0.0,2.0,27,0.00,,,0.00,meteobridge,2013-10-07 19:06:00,
2013-10-07 12:11:00,77.7,40.1,29.88,SE,133,2.0,2.9,26,0.00,,,0.00,meteobridge,2013-10-07 19:11:00,
2013-10-07 12:17:00,78.4,38.7,29.88,SSE,149,0.9,2.9,24,0.00,,,0.00,meteobridge,2013-10-07 19:17:00,
2013-10-07 12:22:00,79.2,38.1,29.88,NNW,329,0.9,2.0,23,0.00,,,0.00,meteobridge,2013-10-07 19:22:00,
2013-10-07 12:27:00,79.9,38.8,29.88,SSW,209,0.9,2.0,23,0.00,,,0.00,meteobridge,2013-10-07 19:27:00,
2013-10-07 12:32:00,80.4,38.1,29.88,WNW,291,0.9,4.0,22,0.00,,,0.00,meteobridge,2013-10-07 19:32:00,
2013-10-07 12:37:00,80.8,38.5,29.87,SW,221,4.0,6.0,22,0.00,,,0.00,meteobridge,2013-10-07 19:37:00,
2013-10-07 12:42:00,80.6,37.0,29.87,SSW,211,0.9,4.9,21,0.00,,,0.00,meteobridge,2013-10-07 19:42:00,
2013-10-07 12:48:00,81.0,36.1,29.87,WNW,297,0.9,2.9,20,0.00,,,0.00,meteobridge,2013-10-07 19:48:00,
2013-10-07 12:53:00,81.9,35.6,29.86,SE,131,2.0,4.0,19,0.00,,,0.00,meteobridge,2013-10-07 19:53:00,
2013-10-07 12:58:00,82.2,34.5,29.86,West,268,0.9,4.0,18,0.00,,,0.00,meteobridge,2013-10-07 19:58:00,
2013-10-07 13:03:00,82.6,34.7,29.86,SW,233,0.9,4.0,18,0.00,,,0.00,meteobridge,2013-10-07 20:03:00,
2013-10-07 13:08:00,82.8,32.0,29.85,South,188,2.9,4.0,16,0.00,,,0.00,meteobridge,2013-10-07 20:08:00,
2013-10-07 13:13:00,82.9,32.2,29.85,SW,233,0.9,4.0,16,0.00,,,0.00,meteobridge,2013-10-07 20:13:00,
2013-10-07 13:18:00,83.7,31.1,29.85,WSW,242,0.9,4.0,15,0.00,,,0.00,meteobridge,2013-10-07 20:18:00,
2013-10-07 13:24:00,83.8,29.5,29.85,SSE,153,2.0,4.9,14,0.00,,,0.00,meteobridge,2013-10-07 20:24:00,
2013-10-07 13:29:00,83.8,31.3,29.85,SW,217,4.0,4.9,15,0.00,,,0.00,meteobridge,2013-10-07 20:29:00,
2013-10-07 13:34:00,83.5,30.9,29.85,West,263,0.9,4.9,15,0.00,,,0.00,meteobridge,2013-10-07 20:34:00,
2013-10-07 13:39:00,83.1,30.7,29.84,SSE,163,2.9,6.0,15,0.00,,,0.00,meteobridge,2013-10-07 20:39:00,
2013-10-07 13:44:00,83.3,30.7,29.84,SSE,152,0.9,4.9,15,0.00,,,0.00,meteobridge,2013-10-07 20:44:00,
2013-10-07 13:49:00,83.7,29.5,29.84,WSW,254,0.9,6.0,14,0.00,,,0.00,meteobridge,2013-10-07 20:49:00,
2013-10-07 13:54:00,83.5,29.3,29.84,SW,225,2.9,4.9,14,0.00,,,0.00,meteobridge,2013-10-07 20:54:00,
2013-10-07 14:00:00,82.8,27.0,29.84,SW,230,2.0,6.0,13,0.00,,,0.00,meteobridge,2013-10-07 21:00:00,
2013-10-07 14:05:00,82.8,27.0,29.84,South,172,2.9,4.0,13,0.00,,,0.00,meteobridge,2013-10-07 21:05:00,
2013-10-07 14:10:00,82.8,30.4,29.83,SW,219,0.0,4.9,15,0.00,,,0.00,meteobridge,2013-10-07 21:10:00,
2013-10-07 14:15:00,82.9,28.8,29.83,SW,232,2.9,2.9,14,0.00,,,0.00,meteobridge,2013-10-07 21:15:00,
2013-10-07 14:20:00,82.6,28.6,29.83,SSW,202,0.9,4.0,14,0.00,,,0.00,meteobridge,2013-10-07 21:20:00,
2013-10-07 14:26:00,82.8,28.8,29.83,West,267,2.9,4.9,14,0.00,,,0.00,meteobridge,2013-10-07 21:26:00,
2013-10-07 14:31:00,82.4,30.2,29.83,WNW,291,0.9,2.9,15,0.00,,,0.00,meteobridge,2013-10-07 21:31:00,
2013-10-07 14:36:00,82.9,27.0,29.83,SSE,165,2.9,6.9,13,0.00,,,0.00,meteobridge,2013-10-07 21:36:00,
2013-10-07 14:41:00,83.5,30.9,29.82,SSW,196,2.0,4.0,15,0.00,,,0.00,meteobridge,2013-10-07 21:41:00,
2013-10-07 14:46:00,84.0,31.5,29.82,SSW,192,2.0,2.9,15,0.00,,,0.00,meteobridge,2013-10-07 21:46:00,
2013-10-07 14:51:00,84.0,29.7,29.81,SW,217,2.9,6.0,14,0.00,,,0.00,meteobridge,2013-10-07 21:51:00,
2013-10-07 14:57:00,83.7,35.6,29.81,WNW,291,2.0,4.0,18,0.00,,,0.00,meteobridge,2013-10-07 21:57:00,
2013-10-07 15:02:00,82.9,33.6,29.81,SW,225,6.9,11.0,17,0.00,,,0.00,meteobridge,2013-10-07 22:02:00,
2013-10-07 15:07:00,82.6,33.4,29.81,SW,225,0.9,8.1,17,0.00,,,0.00,meteobridge,2013-10-07 22:07:00,
2013-10-07 15:12:00,82.8,33.4,29.81,SSE,168,2.9,6.0,17,0.00,,,0.00,meteobridge,2013-10-07 22:12:00,
2013-10-07 15:17:00,82.8,33.4,29.81,SW,227,8.1,8.9,17,0.00,,,0.00,meteobridge,2013-10-07 22:17:00,
2013-10-07 15:22:00,82.8,33.4,29.81,SW,217,2.0,6.9,17,0.00,,,0.00,meteobridge,2013-10-07 22:22:00,
2013-10-07 15:27:00,82.9,33.6,29.81,SSW,213,2.0,2.9,17,0.00,,,0.00,meteobridge,2013-10-07 22:27:00,
2013-10-07 15:32:00,83.7,34.2,29.81,SW,217,4.0,8.9,17,0.00,,,0.00,meteobridge,2013-10-07 22:32:00,
2013-10-07 15:37:00,83.5,34.2,29.81,SW,227,8.9,8.9,17,0.00,,,0.00,meteobridge,2013-10-07 22:37:00,
2013-10-07 15:43:00,83.3,34.0,29.81,SE,139,4.9,4.9,17,0.00,,,0.00,meteobridge,2013-10-07 22:43:00,
2013-10-07 15:48:00,83.1,33.8,29.81,WSW,245,6.9,6.9,17,0.00,,,0.00,meteobridge,2013-10-07 22:48:00,
2013-10-07 15:53:00,82.8,33.4,29.80,SSE,166,0.0,2.9,17,0.00,,,0.00,meteobridge,2013-10-07 22:53:00,
2013-10-07 15:58:00,82.8,33.4,29.80,SSE,158,0.9,2.9,17,0.00,,,0.00,meteobridge,2013-10-07 22:58:00,
2013-10-07 16:03:00,83.1,32.4,29.80,SSW,211,0.0,4.0,16,0.00,,,0.00,meteobridge,2013-10-07 23:03:00,
2013-10-07 16:08:00,83.3,32.4,29.80,SSW,211,2.9,4.0,16,0.00,,,0.00,meteobridge,2013-10-07 23:08:00,
2013-10-07 16:13:00,83.5,34.2,29.80,WSW,253,2.0,6.9,17,0.00,,,0.00,meteobridge,2013-10-07 23:13:00,
2013-10-07 16:19:00,82.8,34.9,29.80,SW,221,2.0,2.9,18,0.00,,,0.00,meteobridge,2013-10-07 23:19:00,
2013-10-07 16:24:00,82.4,36.0,29.80,SSW,194,2.0,4.9,19,0.00,,,0.00,meteobridge,2013-10-07 23:24:00,
2013-10-07 16:29:00,81.3,36.5,29.80,South,175,0.9,4.9,20,0.00,,,0.00,meteobridge,2013-10-07 23:29:00,
2013-10-07 16:34:00,81.1,36.3,29.80,SW,219,4.9,4.9,20,0.00,,,0.00,meteobridge,2013-10-07 23:34:00,
2013-10-07 16:39:00,80.8,38.5,29.80,West,261,0.9,4.0,22,0.00,,,0.00,meteobridge,2013-10-07 23:39:00,
2013-10-07 16:44:00,80.4,36.9,29.80,SW,232,2.0,4.0,21,0.00,,,0.00,meteobridge,2013-10-07 23:44:00,
2013-10-07 16:50:00,80.2,39.0,29.80,SSW,207,0.0,4.0,23,0.00,,,0.00,meteobridge,2013-10-07 23:50:00,
2013-10-07 16:55:00,80.2,40.1,29.79,SW,225,0.9,2.9,24,0.00,,,0.00,meteobridge,2013-10-07 23:55:00,
2013-10-07 17:00:00,79.9,41.9,29.79,South,182,0.9,4.0,26,0.00,,,0.00,meteobridge,2013-10-08 00:00:00,
2013-10-07 17:05:00,79.7,41.7,29.79,SSW,194,2.0,6.0,26,0.00,,,0.00,meteobridge,2013-10-08 00:05:00,
2013-10-07 17:10:00,79.7,41.7,29.79,South,178,2.0,4.0,26,0.00,,,0.00,meteobridge,2013-10-08 00:10:00,
2013-10-07 17:15:00,79.5,42.6,29.79,South,188,2.0,2.0,27,0.00,,,0.00,meteobridge,2013-10-08 00:15:00,
2013-10-07 17:20:00,79.2,42.3,29.79,SSE,167,2.0,4.9,27,0.00,,,0.00,meteobridge,2013-10-08 00:20:00,
2013-10-07 17:26:00,78.6,41.9,29.78,WSW,240,2.0,4.0,27,0.00,,,0.00,meteobridge,2013-10-08 00:26:00,
2013-10-07 17:31:00,78.3,42.4,29.78,SSE,167,0.9,0.9,28,0.00,,,0.00,meteobridge,2013-10-08 00:31:00,
2013-10-07 17:36:00,78.3,42.4,29.78,South,182,0.0,2.0,28,0.00,,,0.00,meteobridge,2013-10-08 00:36:00,
2013-10-07 17:41:00,77.5,43.7,29.78,SW,231,0.0,2.9,30,0.00,,,0.00,meteobridge,2013-10-08 00:41:00,
2013-10-07 17:47:00,76.8,43.9,29.78,West,267,0.0,0.9,31,0.00,,,0.00,meteobridge,2013-10-08 00:47:00,
2013-10-07 17:52:00,76.5,44.4,29.78,West,269,0.9,0.9,32,0.00,,,0.00,meteobridge,2013-10-08 00:52:00,
2013-10-07 17:57:00,75.7,44.6,29.78,WNW,284,0.9,2.0,33,0.00,,,0.00,meteobridge,2013-10-08 00:57:00,
2013-10-07 18:02:00,75.2,45.0,29.78,WNW,286,0.9,2.0,34,0.00,,,0.00,meteobridge,2013-10-08 01:02:00,
2013-10-07 18:07:00,74.8,45.3,29.78,WNW,286,0.0,0.9,35,0.00,,,0.00,meteobridge,2013-10-08 01:07:00,
2013-10-07 18:13:00,74.8,45.3,29.78,West,280,0.0,0.9,35,0.00,,,0.00,meteobridge,2013-10-08 01:13:00,
2013-10-07 18:18:00,74.5,45.9,29.78,West,280,0.0,0.9,36,0.00,,,0.00,meteobridge,2013-10-08 01:18:00,
2013-10-07 18:23:00,73.8,45.9,29.78,SE,136,0.0,0.0,37,0.00,,,0.00,meteobridge,2013-10-08 01:23:00,
2013-10-07 18:28:00,73.2,46.0,29.78,West,279,0.0,0.9,38,0.00,,,0.00,meteobridge,2013-10-08 01:28:00,
2013-10-07 18:33:00,72.7,46.2,29.78,West,267,0.9,2.9,39,0.00,,,0.00,meteobridge,2013-10-08 01:33:00,
2013-10-07 18:38:00,72.1,45.9,29.78,West,271,0.0,0.9,39,0.00,,,0.00,meteobridge,2013-10-08 01:38:00,
2013-10-07 18:44:00,71.4,45.9,29.78,West,271,0.0,0.9,40,0.00,,,0.00,meteobridge,2013-10-08 01:44:00,
2013-10-07 18:49:00,71.1,46.2,29.78,West,271,0.0,0.9,41,0.00,,,0.00,meteobridge,2013-10-08 01:49:00,
2013-10-07 18:54:00,70.5,46.4,29.79,West,271,0.0,0.9,42,0.00,,,0.00,meteobridge,2013-10-08 01:54:00,
2013-10-07 18:59:00,70.0,45.9,29.79,West,271,0.0,0.9,42,0.00,,,0.00,meteobridge,2013-10-08 01:59:00,
2013-10-07 19:04:00,69.6,46.2,29.79,West,271,0.0,0.0,43,0.00,,,0.00,meteobridge,2013-10-08 02:04:00,
2013-10-07 19:09:00,68.9,46.0,29.79,West,271,0.0,0.9,44,0.00,,,0.00,meteobridge,2013-10-08 02:09:00,
2013-10-07 19:15:00,68.5,46.4,29.79,West,270,0.0,0.0,45,0.00,,,0.00,meteobridge,2013-10-08 02:15:00,
2013-10-07 19:20:00,68.0,46.4,29.79,West,271,0.0,0.9,46,0.00,,,0.00,meteobridge,2013-10-08 02:20:00,
2013-10-07 19:25:00,67.5,46.6,29.79,West,271,0.9,0.9,47,0.00,,,0.00,meteobridge,2013-10-08 02:25:00,
2013-10-07 19:30:00,66.9,46.6,29.79,West,271,0.0,0.0,48,0.00,,,0.00,meteobridge,2013-10-08 02:30:00,
2013-10-07 19:35:00,66.4,46.0,29.79,West,271,0.0,0.0,48,0.00,,,0.00,meteobridge,2013-10-08 02:35:00,
2013-10-07 19:40:00,65.8,46.8,29.79,West,271,0.0,0.0,50,0.00,,,0.00,meteobridge,2013-10-08 02:40:00,
2013-10-07 19:46:00,65.5,46.4,29.79,West,271,0.9,0.9,50,0.00,,,0.00,meteobridge,2013-10-08 02:46:00,
2013-10-07 19:51:00,64.9,45.9,29.79,West,271,0.0,0.9,50,0.00,,,0.00,meteobridge,2013-10-08 02:51:00,
2013-10-07 19:56:00,64.4,46.4,29.80,West,271,0.0,0.0,52,0.00,,,0.00,meteobridge,2013-10-08 02:56:00,
2013-10-07 20:01:00,63.7,46.2,29.80,West,271,0.0,0.0,53,0.00,,,0.00,meteobridge,2013-10-08 03:01:00,
2013-10-07 20:06:00,63.1,46.8,29.80,West,271,0.0,0.0,55,0.00,,,0.00,meteobridge,2013-10-08 03:06:00,
2013-10-07 20:11:00,62.4,46.6,29.80,West,271,0.0,0.0,56,0.00,,,0.00,meteobridge,2013-10-08 03:11:00,
2013-10-07 20:17:00,61.9,46.4,29.80,West,271,0.0,0.0,57,0.00,,,0.00,meteobridge,2013-10-08 03:17:00,
2013-10-07 20:22:00,61.5,46.2,29.80,West,271,0.0,0.9,57,0.00,,,0.00,meteobridge,2013-10-08 03:22:00,
2013-10-07 20:27:00,61.2,46.2,29.80,West,271,0.0,0.0,58,0.00,,,0.00,meteobridge,2013-10-08 03:27:00,
2013-10-07 20:32:00,61.0,46.6,29.80,West,271,0.0,0.0,59,0.00,,,0.00,meteobridge,2013-10-08 03:32:00,
2013-10-07 20:37:00,60.3,46.4,29.80,West,271,0.0,0.9,60,0.00,,,0.00,meteobridge,2013-10-08 03:37:00,
2013-10-07 20:42:00,60.1,46.2,29.80,West,271,0.0,0.0,60,0.00,,,0.00,meteobridge,2013-10-08 03:42:00,
2013-10-07 20:48:00,59.7,45.9,29.80,West,271,0.0,0.0,60,0.00,,,0.00,meteobridge,2013-10-08 03:48:00,
2013-10-07 20:53:00,59.5,46.0,29.80,West,271,0.0,0.9,61,0.00,,,0.00,meteobridge,2013-10-08 03:53:00,
2013-10-07 20:58:00,59.2,45.3,29.80,West,271,0.0,0.0,60,0.00,,,0.00,meteobridge,2013-10-08 03:58:00,
2013-10-07 21:01:00,58.8,45.0,29.80,West,271,0.0,0.0,60,0.00,,,0.00,meteobridge,2013-10-08 04:01:00,
2013-10-07 21:02:00,58.6,45.3,29.80,West,271,0.0,0.0,61,0.00,,,0.00,meteobridge,2013-10-08 04:02:00,
2013-10-07 21:03:00,58.6,45.3,29.80,West,271,0.0,0.0,61,0.00,,,0.00,meteobridge,2013-10-08 04:03:00,
2013-10-07 21:04:00,58.5,45.5,29.80,West,271,0.0,0.0,62,0.00,,,0.00,meteobridge,2013-10-08 04:04:00,
2013-10-07 21:06:00,58.3,45.7,29.81,West,271,0.0,0.0,63,0.00,,,0.00,meteobridge,2013-10-08 04:06:00,
2013-10-07 21:11:00,57.9,45.3,29.81,West,271,0.0,0.0,63,0.00,,,0.00,meteobridge,2013-10-08 04:11:00,
2013-10-07 21:13:00,57.7,45.3,29.81,West,271,0.0,0.0,63,0.00,,,0.00,meteobridge,2013-10-08 04:13:00,
2013-10-07 21:18:00,57.6,45.9,29.81,West,271,0.0,0.0,65,0.00,,,0.00,meteobridge,2013-10-08 04:18:00,
2013-10-07 21:23:00,57.2,46.4,29.80,West,271,0.0,0.0,67,0.00,,,0.00,meteobridge,2013-10-08 04:23:00,
2013-10-07 21:28:00,56.8,45.7,29.80,West,271,0.0,0.0,66,0.00,,,0.00,meteobridge,2013-10-08 04:28:00,
2013-10-07 21:33:00,56.3,45.5,29.80,West,271,0.0,0.0,67,0.00,,,0.00,meteobridge,2013-10-08 04:33:00,
2013-10-07 21:38:00,55.9,45.5,29.80,West,271,0.0,0.0,68,0.00,,,0.00,meteobridge,2013-10-08 04:38:00,
2013-10-07 21:44:00,55.8,45.7,29.80,West,271,0.0,0.0,69,0.00,,,0.00,meteobridge,2013-10-08 04:44:00,
2013-10-07 21:49:00,55.6,45.5,29.80,West,271,0.0,0.0,69,0.00,,,0.00,meteobridge,2013-10-08 04:49:00,
2013-10-07 21:54:00,55.8,45.3,29.80,West,271,0.0,0.0,68,0.00,,,0.00,meteobridge,2013-10-08 04:54:00,
2013-10-07 21:59:00,55.8,44.6,29.80,NNW,328,0.9,2.9,66,0.00,,,0.00,meteobridge,2013-10-08 04:59:00,
2013-10-07 22:04:00,55.8,44.6,29.80,NNW,328,0.0,0.9,66,0.00,,,0.00,meteobridge,2013-10-08 05:04:00,
2013-10-07 22:09:00,55.8,44.2,29.81,NNW,328,0.0,0.0,65,0.00,,,0.00,meteobridge,2013-10-08 05:09:00,
2013-10-07 22:14:00,55.2,44.4,29.81,NNW,328,0.0,0.0,67,0.00,,,0.00,meteobridge,2013-10-08 05:14:00,
2013-10-07 22:20:00,54.9,44.4,29.81,NNW,329,0.0,0.0,68,0.00,,,0.00,meteobridge,2013-10-08 05:20:00,
2013-10-07 22:25:00,54.3,44.4,29.80,NNW,329,0.0,0.0,69,0.00,,,0.00,meteobridge,2013-10-08 05:25:00,
2013-10-07 22:30:00,54.0,44.4,29.80,NNW,328,0.9,0.9,70,0.00,,,0.00,meteobridge,2013-10-08 05:30:00,
2013-10-07 22:35:00,54.1,44.6,29.80,NNW,328,0.0,0.0,70,0.00,,,0.00,meteobridge,2013-10-08 05:35:00,
2013-10-07 22:40:00,54.0,44.4,29.80,NNW,329,0.0,0.0,70,0.00,,,0.00,meteobridge,2013-10-08 05:40:00,
2013-10-07 22:45:00,53.8,44.2,29.80,NNW,328,0.0,0.0,70,0.00,,,0.00,meteobridge,2013-10-08 05:45:00,
2013-10-07 22:51:00,53.4,44.6,29.80,NNW,328,0.0,0.0,72,0.00,,,0.00,meteobridge,2013-10-08 05:51:00,
2013-10-07 22:56:00,53.2,44.1,29.81,NNW,328,0.0,0.0,71,0.00,,,0.00,meteobridge,2013-10-08 05:56:00,
2013-10-07 23:01:00,52.9,44.1,29.81,NNW,328,0.0,0.0,72,0.00,,,0.00,meteobridge,2013-10-08 06:01:00,
2013-10-07 23:06:00,52.5,44.4,29.81,NNW,328,0.0,0.0,74,0.00,,,0.00,meteobridge,2013-10-08 06:06:00,
2013-10-07 23:11:00,52.2,44.1,29.80,NNW,328,0.0,0.0,74,0.00,,,0.00,meteobridge,2013-10-08 06:11:00,
2013-10-07 23:16:00,51.8,44.4,29.80,NNW,328,0.0,0.0,76,0.00,,,0.00,meteobridge,2013-10-08 06:16:00,
2013-10-07 23:22:00,52.0,44.2,29.81,NNW,329,0.0,0.9,75,0.00,,,0.00,meteobridge,2013-10-08 06:22:00,
2013-10-07 23:27:00,52.0,43.9,29.81,NNW,329,0.0,0.0,74,0.00,,,0.00,meteobridge,2013-10-08 06:27:00,
2013-10-07 23:32:00,51.6,44.2,29.81,East,83,0.9,0.9,76,0.00,,,0.00,meteobridge,2013-10-08 06:32:00,
2013-10-07 23:37:00,52.2,44.4,29.81,East,101,0.0,0.9,75,0.00,,,0.00,meteobridge,2013-10-08 06:37:00,
2013-10-07 23:42:00,52.0,43.5,29.81,East,101,0.0,0.0,73,0.00,,,0.00,meteobridge,2013-10-08 06:42:00,
2013-10-07 23:47:00,51.8,44.1,29.81,East,101,0.0,0.9,75,0.00,,,0.00,meteobridge,2013-10-08 06:47:00,
2013-10-07 23:53:00,51.4,43.7,29.81,East,100,0.0,0.9,75,0.00,,,0.00,meteobridge,2013-10-08 06:53:00,
2013-10-07 23:58:00,51.3,43.9,29.81,East,101,0.9,0.9,76,0.00,,,0.00,meteobridge,2013-10-08 06:58:00,